Location: Burland Observatory
(39.4088°N, 105.4217°W)
Time: 22:50:08
(UTC-07:00)

Explorer 7 - Pass Details

Date: 09 December 2019
Orbit: 485 x 679 km, 50.3° (Epoch: 20 January)

Event Time Altitude Azimuth Distance (km) Brightness Sun altitude
Rises 19:08:33 0° 294° (WNW) 3,028 11.4 -28.3°
Reaches altitude 10° 19:11:24 10° 310° (NW) 2,112 10.3 -28.8°
Enters shadow 19:13:47 20° 337° (NNW) 1,566 9.2 -29.3°
